Location: Aulnoy
(48.8410°N, 3.0967°E)
Time: 12:01:45
(UTC+00:00)

Cosmos 1980 - Pass Details

Date: 09 February 2023
Orbit: 838 x 847 km, 71.0° (Epoch: 21 March)

Event Time Altitude Azimuth Distance (km) Brightness Sun altitude
Rises 18:35:42 0° 180° (S) 3,377 6.9 -16.5°
Reaches altitude 10° 18:38:18 10° 172° (S) 2,447 6.1 -16.9°
Maximum altitude 18:43:23 37° 107° (ESE) 1,294 4.2 -17.7°
Enters shadow 18:45:10 29° 70° (ENE) 1,490 4.4 -18.0°
